Location: Lesignano de� Bagni
(44.6500°N, 10.3000°E)
Time: 07:55:44
(UTC+00:00)

Okean 1 - Pass Details

Date: 03 March 2021
Orbit: 538 x 554 km, 82.5° (Epoch: 19 April)

Event Time Altitude Azimuth Distance (km) Brightness Sun altitude
Rises 17:54:42 0° 353° (N) 2,732 7.0 -8.9°
Reaches altitude 10° 17:56:53 10° 356° (N) 1,836 6.0 -9.2°
Maximum altitude 18:00:54 68° 81° (E) 597 3.3 -10.0°
Drops below altitude 10° 18:04:55 10° 164° (SSE) 1,828 5.8 -10.7°
Sets 18:07:05 0° 167° (SSE) 2,719 6.7 -11.1°
